Simultaneous Nadir Overpasses (SNOs) Predictions

Prediction of SNOs between NOAA-19 and NPP Satellite Orbit:

Table of predicted SNOs for the next 14.0 days since TLE Epoch: 1/18/2013
Index Date (NOAA-19) Time (NOAA-19) Lat,Lon (NOAA-19) SZA (NOAA-19 ) Date (NPP) Time (NPP) Lat,Lon (NPP) SZA (NPP ) Distance(km) Time Diff (sec)
1 01/28/2013 13:29:43 -77.26, 44.92 66.78 01/28/2013 13:30:58 -77.75, 42.83 66.61 73.67 75
2 01/28/2013 14:17:27 80.83, -85.08 102.49 01/28/2013 14:18:26 80.84, -85.19 102.47 2.01 59
3 01/28/2013 15:08:27 -80.82, 82.44 77.57 01/28/2013 15:09:10 -80.82, 82.45 77.59 0.36 43
4 01/28/2013 15:59:30 80.80,-109.96 102.37 01/28/2013 15:59:55 80.81,-110.05 102.37 1.64 25
5 01/28/2013 16:50:30 -80.79, 57.55 77.68 01/28/2013 16:50:39 -80.79, 57.59 77.69 0.68 9
6 01/28/2013
